Regional Weather Roundup
Issued by NWS San Diego, CA

Current Version | Previous Version | Text Only | Print | Product List | Glossary On
Versions: 1 2 3 4 5 6 7 8 9 10 11 12 13 14 15 16 17 18 19 20 21 22 23 24 25 26 27 28 29 30 31 32 33 34 35 36 37 38 39 40 41 42 43 44 45 46 47 48 49 50
000
ASUS46 KSGX 180411
RWRSGX

SAN DIEGO HOURLY WEATHER ROUNDUP
NATIONAL WEATHER SERVICE SAN DIEGO CA
900 PM PDT FRI APR 17 2015

NOTE: "FAIR" INDICATES FEW OR NO CLOUDS BELOW 12,000 FEET WITH NO
SIGNIFICANT WEATHER AND/OR OBSTRUCTIONS TO VISIBILITY.

CAZ042-043-060-061-PZZ750-775-180500-

GREATER SAN DIEGO AREA

CITY           SKY/WX    TMP DP  RH WIND       PRES   REMARKS
LINDBERGH FLD  CLEAR     69  39  33 N7        30.03R
POINT LOMA       N/A     64  47  54 NW10        N/A
CHULA VISTA      N/A     69  39  33 CALM      29.95R
IMPERIAL BEACH CLEAR     69  42  37 N7        30.03R
BROWN FIELD    CLEAR     67  29  24 N3        30.02R
MIRAMAR MCAS   CLEAR     66  40  38 N12       30.02R
MONTGOMERY FLD CLEAR     66  41  40 N7        30.03R

$$

NORTH SAN DIEGO COUNTY

CITY           SKY/WX    TMP DP  RH WIND       PRES   REMARKS
CAMP PENDLETON CLEAR     69  32  25 VRB3      30.00R
OCEANSIDE AP   CLEAR     62  41  46 CALM      30.00R
VISTA            N/A     65  39  38 SE1       30.00R
CARLSBAD       CLEAR     64  48  56 W6        30.01R
FALLBROOK        N/A     65  31  27 S3        30.00R
SAN MARCOS       N/A     64  44  48 CALM      30.00R
POWAY            N/A     65  35  32 CALM      30.04R

$$

EAST SAN DIEGO COUNTY

CITY           SKY/WX    TMP DP  RH WIND       PRES   REMARKS
RAMONA         CLEAR     57  26  30 E3        30.04R
SANTEE LAKES     N/A     65  34  31 CALM      30.02R
LA MESA          N/A     67  33  28 CALM      29.96R
DESCANSO N       N/A     51  23  33 CALM      29.95R
MT. LAGUNA OBS   N/A     49  13  23 NW3       29.71
CAMPO            N/A     57  25  29 CALM      30.03R

$$

ORANGE COUNTY AND THE LOS ANGELES BASIN

CITY           SKY/WX    TMP DP  RH WIND       PRES   REMARKS
JOHN WAYNE AP  CLEAR     64  47  53 SW3       30.01R
LAKE FOREST FR   N/A     65  25  22 CALM      29.90R
SANTA ANA        N/A     68  47  47 CALM      29.96R
HUNTINGTON BCH   N/A     62  55  77 W8        30.02R
LOS ALAMITOS   CLEAR     66  32  28 W6        30.00R
FULLERTON      CLEAR     68  35  29 W6        30.00R
LONG BEACH     CLEAR     69  32  25 W9        30.00R
L.A. AP        CLEAR     65  41  41 W10       30.00R
L.A. DOWNTOWN  CLEAR     67  43  41 CALM      29.99R

$$

THE INLAND EMPIRE

CITY           SKY/WX    TMP DP  RH WIND       PRES   REMARKS
CORONA         CLEAR     70  24  17 W7        30.00R
CHINO          CLEAR     65  27  23 W9        30.01R
ONTARIO        CLEAR     68  27  21 SW7       30.01R
SAN BERNARDINO CLEAR    N/A N/A N/A SW3       30.02R
RIVERSIDE AP   CLEAR     69  24  18 NW3       30.01R
MARCH ARB      CLEAR     64  22  20 N8        30.02R
HORSETHIEF CYN   N/A     65  19  17 S6        29.97R
MENIFEE          N/A     68  32  25 CALM      30.06R
HEMET EAST       N/A     66  19  17 CALM      30.03R
FRENCH VALLEY  FAIR      64  23  20 SE5       30.03R
TEMECULA         N/A     69  28  22 S3        29.97R

$$

SAN BERNARDINO AND RIVERSIDE COUNTY MOUNTAINS

CITY           SKY/WX    TMP DP  RH WIND       PRES   REMARKS
BIG BEAR AP    PTCLDY    39  14  35 CALM      30.20R

$$

SOUTHERN DESERT INCLUDING THE COACHELLA VALLEY

CITY           SKY/WX    TMP DP  RH WIND       PRES   REMARKS
PALM SPRINGS   CLEAR     79  20  11 CALM      29.95R
THOUSAND PALMS   N/A     77  31  18 SE2       29.91R
THERMAL        CLEAR     68  34  28 CALM      29.89R
BLYTHE         CLEAR     73  28  18 SW6       29.92R
IMPERIAL AP    CLEAR     76  23  14 SE6       29.91R
EL CENTRO NAS  CLEAR     71  31  22 SE8       29.91R
YUMA AZ        CLEAR     76  26  15 CALM      29.94R
MEXICALI       CLEAR     73  30  20 S5        29.92R

$$

UPPER DESERT

CITY           SKY/WX    TMP DP  RH WIND       PRES   REMARKS
VICTORVILLE AP CLEAR     66  14  13 W15       30.04R
HESPERIA         N/A     63  26  24 CALM      30.13R
APPLE VALLEY     N/A     67  20  16 SW3       30.09R
PALMDALE       CLEAR     65  16  15 SW12      30.05R
LANCASTER      CLEAR     64  23  21 W12       30.04R
EDWARDS AFB    CLEAR     68  18  15 SW12      30.00R
DAGGETT        CLEAR     69  10  10 W6        29.96R
29 PALMS N     CLEAR     71  12  10 W6        30.05R
NEEDLES        CLEAR     74  17  11 W10       29.91R

$$

REGIONAL REPORTS

CITY           SKY/WX    TMP DP  RH WIND       PRES   REMARKS
SANTA BARBARA  CLEAR     66  37  34 W9        29.98R
SANDBERG       CLEAR     59  26  28 NW5       30.13R
MT. WILSON       N/A     54  12  19 MISG        N/A
LAS VEGAS NV   CLEAR     74  15  10 SW14      29.88R
PHOENIX AZ     PTCLDY    74  23  15 SW6       29.92R
TIJUANA        CLEAR     68  23  18 N8        30.05R
ENSENADA NW      N/A     64  32  29 E6        29.99R

$$

OFFSHORE ISLANDS

CITY           SKY/WX    TMP DP  RH WIND       PRES   REMARKS
CATALINA ARPT  CLEAR     62  29  28 W12       30.06R
SAN NICOLAS IS CLEAR    N/A N/A N/A W16       30.03R

$$

MARINE AND OFFSHORE BUOY REPORTS

STATION/POSITION SKY/WX   TEMP    WIND        PRES    SWELL
                          AIR SEA DIR/SP/G            HT/PER/DIR
                          (F)     (DEG/KT/KT) (MB)    (FT/S/D)
TANNER BANKS               61 62  310/ 10/ 12 1016.4R   8/320/17
S CLEMENTE BASIN           64 65  300/ 14/ 16 1015.8R   5/280/17
SAN NICOLAS IS.               60                N/A     7/290/18
SO. S. ROSA ISLA           60 62  320/ 14/ 16 1015.8R   8/16
W. S. BARBARA CH           58 59  310/ 16/ 17 1016.0R   8/300/16
S. MONICA BASIN            63 63  290/ 12/ 14 1015.6R   2/230/17
S PEDRO CHANNEL               62                N/A     2/280/17
DANA POINT                    63                N/A     2/270/17
CMP PENDLETON NS              62                N/A     2/200/13
OCEANSIDE OFFSHR              62                N/A     2/200/13
TORREY PINES OTR              64                N/A     3/290/18
LA JOLLA 1                 65 56   10/  6/  7 1015.9R
MISSION BAY BUOY              64                N/A     3/270/18
SAN DIEGO BAY                 68              1016.3R
POINT LOMA SOUTH              65                N/A     3/280/18

$$



USA.gov is the U.S. government's official web portal to all federal, state and local government web resources and services.